Temperature
19 18 19 18 18 18 18 19 19 19 19 18 18 19 19 19 18 18 18 18 18 18 18 18 18 18 18 18 18 18 18 18 18 18 18 18 18 18 18 18 18 17 18
19 18 19 18 18 18 18 18 18 18 18 18 18 18 18 18 18 18 18 18 18 18 18 18 18 18 18 18 18 18 18 18 18 18 18 18 18 18 18 18 17 17 18
19 18 18 18 18 18 18 18 18 18 18 18 18 18 18 18 18 18 18 18 18 18 18 18 18 18 18 18 18 18 18 18 18 18 18 17 17 18 18 18 18 18 18
19 19 18 19 18 18 18 18 18 18 18 18 18 18 18 18 18 18 18 18 18 18 18 18 18 18 18 18 18 18 18 18 18 18 17 17 17 18 18 18 18 18 17
19 18 18 19 19 18 18 18 18 18 18 18 18 18 18 18 18 18 18 18 18 18 18 18 18 18 18 18 18 18 18 18 18 17 17 17 17 18 18 18 17 17 17
19 19 18 19 19 18 18 18 18 18 18 18 18 18 18 18 18 18 18 18 18 18 18 18 18 18 18 18 18 18 18 18 18 17 17 17 17 18 18 17 17 17 17
19 19 18 19 19 18 18 18 18 18 18 18 18 18 18 18 18 18 18 18 18 18 18 18 18 18 18 18 18 18 18 18 17 17 17 17 17 18 18 17 17 17 17
19 19 18 19 19 18 18 18 18 18 18 18 18 18 18 18 18 18 18 18 18 18 18 18 18 18 18 18 18 18 18 17 17 17 17 17 17 18 17 17 17 17 17
19 19 19 18 18 18 19 18 18 18 18 18 18 18 18 18 18 18 18 18 18 18 18 18 18 17 17 18 18 18 17 17 18 17 17 17 17 18 17 17 17 17 17
18 19 18 19 18 18 18 19 18 18 18 18 18 18 18 18 18 18 18 18 18 18 18 18 18 18 18 18 18 18 17 17 18 17 17 17 18 18 17 17 17 17 17
18 18 18 18 18 18 18 18 18 18 18 18 18 18 18 17 17 17 18 18 18 18 18 18 17 17 18 18 18 18 17 17 18 17 17 17 18 17 17 17 17 17 17
19 18 18 18 18 18 18 18 18 18 18 18 18 17 18 18 17 18 18 18 18 18 18 18 18 18 17 17 17 17 17 17 18 17 17 17 17 17 17 17 17 17 17
19 19 18 18 18 18 18 18 18 18 18 18 17 17 18 18 18 17 17 17 17 17 17 17 17 17 17 17 17 17 17 17 18 17 17 17 17 17 17 17 17 17 17
19 19 18 18 18 18 18 18 18 18 18 18 18 18 17 18 18 17 17 17 17 17 17 17 17 17 17 17 17 17 17 17 17 17 17 17 17 17 17 17 17 17 17
19 19 18 18 18 18 18 18 18 18 18 18 17 17 17 18 17 17 17 17 17 17 17 17 17 17 17 17 17 17 17 17 17 17 17 17 17 17 17 17 17 17 17
19 19 18 18 18 18 18 18 18 18 18 18 17 17 17 17 17 17 17 17 17 17 17 17 17 17 17 17 17 17 17 17 17 17 17 17 17 17 17 17 17 17 17
19 19 18 18 18 18 18 18 18 18 18 18 17 17 18 17 17 17 17 17 17 17 17 17 17 17 17 17 17 17 17 17 17 17 17 17 17 17 17 17 17 17 17
19 19 19 19 19 18 18 18 18 18 18 18 18 18 18 18 18 18 17 18 17 17 17 17 17 17 17 17 17 17 17 17 17 17 17 17 17 17 17 17 17 17 17
19 19 19 19 19 18 18 18 18 18 18 18 18 18 18 18 18 18 18 18 17 17 17 18 17 17 17 17 17 17 17 17 17 17 17 17 17 17 17 17 17 17 17
19 19 19 19 19 19 18 18 18 18 18 18 18 18 18 18 18 18 17 17 18 17 17 17 17 17 17 17 17 17 17 17 17 17 17 17 17 17 17 17 17 17 17
20 19 19 19 19 19 19 19 18 18 18 18 18 18 18 18 18 18 18 18 17 18 18 17 17 17 17 17 17 17 17 17 17 17 17 17 17 17 17 16 16 16 16
20 20 19 19 19 19 19 19 19 18 18 18 18 18 18 18 18 18 18 17 18 17 17 17 17 17 17 17 17 18 18 18 17 17 17 17 17 17 16 16 16 16 16
20 20 20 19 19 19 19 19 18 18 18 18 18 18 18 18 18 18 17 18 17 17 17 17 17 17 17 17 17 17 18 18 18 18 17 17 17 17 17 16 16 16 16
20 20 20 20 19 19 19 19 19 19 19 18 18 18 18 18 18 18 18 17 18 17 17 17 17 17 17 17 17 17 17 17 18 18 17 17 17 16 16 16 16 16 16
21 20 20 20 20 19 19 19 19 19 19 18 18 18 18 18 18 17 18 18 18 17 17 17 17 17 17 17 17 17 17 17 17 18 18 17 17 17 16 16 16 16 16
21 20 20 20 20 19 19 19 19 19 19 18 18 18 18 18 18 18 17 18 17 17 17 17 17 17 17 17 17 17 17 17 18 18 18 17 17 17 16 16 16 16 16
Wind_Speed
5 7 9 8 9 10 10 10 11 12 14 14 14 14 15 15 15 16 16 16 16 16 16 17 17 17 17 17 17 16 16 16 16 15 15 14 14 14 14 14 13 14 15
5 8 9 7 9 10 11 11 12 13 14 14 14 15 15 15 15 16 16 16 15 15 15 15 16 16 16 17 16 16 16 15 15 14 14 14 14 13 12 11 8 13 15
6 8 9 8 9 10 11 12 13 13 14 14 15 14 14 14 14 15 15 15 14 14 14 14 15 15 15 15 16 16 15 14 14 13 12 12 13 12 11 11 12 14 13
6 8 9 9 9 10 11 12 12 13 13 13 14 13 13 13 13 13 14 13 13 13 13 13 14 15 15 15 15 15 15 14 13 10 9 11 12 13 12 12 12 13 13
8 8 11 9 10 10 10 11 12 12 12 13 13 13 12 12 12 12 13 12 12 12 12 12 13 14 14 14 14 14 14 13 11 8 9 9 10 13 12 12 13 12 12
8 9 11 9 9 9 10 11 11 12 12 12 12 12 12 12 12 11 11 12 11 11 11 12 13 13 13 13 13 13 12 11 10 9 8 9 10 12 12 12 12 12 11
8 9 12 10 9 10 10 10 10 11 11 11 11 12 12 11 11 11 11 11 11 11 10 11 12 12 12 12 11 11 11 8 7 8 8 8 9 12 11 11 11 11 10
8 9 11 11 10 10 10 10 9 10 10 10 10 11 11 11 11 10 10 10 10 10 10 11 11 11 11 10 10 10 9 6 8 7 7 8 11 10 10 10 10 10 10
7 8 8 10 11 10 9 9 8 9 9 9 10 10 10 10 10 9 10 10 9 9 9 10 10 9 9 9 9 9 7 5 5 6 7 8 11 10 10 10 10 9 9
6 7 7 7 8 8 9 9 8 8 8 8 9 9 9 10 10 9 10 10 9 8 8 8 8 8 8 7 7 7 7 7 6 7 6 9 11 10 10 9 9 9 9
7 6 6 6 6 6 7 8 8 9 8 7 8 8 6 7 8 8 10 9 8 8 8 8 7 7 7 7 6 6 7 5 6 5 5 10 10 10 10 9 8 9 9
7 7 5 5 5 6 5 6 5 6 6 5 5 5 5 5 5 6 10 9 8 8 7 7 6 6 6 6 7 7 4 4 5 5 6 10 10 10 10 9 8 8 9
7 6 6 5 5 4 4 4 4 4 4 5 5 4 4 4 5 5 6 7 7 7 6 6 5 4 3 2 2 3 3 3 3 5 7 9 9 9 9 9 9 9 9
6 6 5 5 4 3 2 3 3 3 3 3 4 3 3 2 2 3 3 4 4 4 4 3 3 3 2 3 2 2 3 3 3 3 6 9 8 8 9 9 9 9 9
6 6 6 4 4 3 2 1 2 2 2 3 3 3 2 2 2 3 3 2 2 4 4 3 3 3 2 3 3 3 3 3 3 3 5 9 9 9 8 8 9 9 9
6 5 5 4 4 3 2 1 1 1 2 2 2 3 2 2 2 2 3 2 2 3 3 2 3 2 2 1 2 1 2 3 3 4 4 7 10 9 8 8 8 9 9
6 5 4 4 4 3 3 2 2 1 2 2 3 3 2 2 2 2 2 2 2 3 3 3 2 2 2 2 2 1 1 1 2 3 4 4 6 9 9 9 9 9 9
6 5 4 4 4 4 2 1 1 1 2 2 3 3 3 2 2 2 2 2 3 3 3 2 2 2 1 1 1 1 1 2 2 2 3 3 3 4 7 8 7 7 8
6 6 6 4 4 4 3 2 2 1 1 2 3 3 3 2 2 2 2 2 3 2 2 2 2 1 1 1 1 1 1 2 2 2 2 2 2 3 3 5 6 6 7
7 6 6 5 4 4 3 3 2 2 2 2 2 2 2 2 2 2 2 2 2 2 2 1 1 1 1 1 0 1 1 1 2 2 2 2 2 2 2 2 4 5 6
8 8 7 6 5 4 3 2 2 2 2 2 2 2 2 2 2 1 1 2 1 2 1 2 2 2 2 1 1 1 2 2 2 2 1 1 2 2 2 1 1 1 4
10 9 8 7 6 5 4 3 2 1 2 2 1 2 1 2 1 1 1 2 2 1 2 1 1 1 1 1 1 2 1 3 2 2 2 2 1 2 2 2 2 2 2
10 9 8 7 6 6 5 4 3 3 2 2 2 2 2 2 1 0 1 1 1 2 1 2 2 2 2 1 2 2 2 1 0 2 3 3 2 1 2 2 3 2 2
11 10 9 8 7 6 6 5 4 3 2 2 2 2 2 2 2 2 1 1 1 1 1 2 1 2 3 2 2 2 3 3 2 1 2 3 3 3 2 2 2 2 2
11 10 9 9 8 7 6 6 5 4 3 3 3 3 2 3 2 2 2 2 1 1 1 1 1 2 2 2 2 2 3 3 4 3 2 2 2 2 2 2 2 1 2
11 11 10 10 9 8 8 7 6 5 4 3 3 3 3 3 3 3 2 2 2 1 1 1 1 2 2 2 3 3 3 3 3 3 3 3 2 2 2 1 2 1 2
Wind_Direction
61 66 72 66 69 76 86 91 97 100 98 99 100 100 103 108 110 111 113 115 117 119 121 123 124 125 126 127 124 123 123 123 123 124 126 127 127 127 129 133 139 128 125
75 81 88 77 78 78 85 92 98 101 101 100 99 99 101 105 109 110 111 113 116 118 119 121 123 125 126 127 125 124 123 123 124 127 130 130 130 130 131 132 125 123 132
85 92 99 86 85 84 86 91 96 100 101 101 100 99 100 104 108 110 110 111 112 115 118 121 123 125 127 127 127 126 124 124 125 131 144 135 130 130 132 128 123 129 133
91 93 89 90 90 87 88 90 92 97 99 101 101 102 102 103 106 106 107 108 109 112 117 122 126 128 128 127 128 129 129 128 130 147 140 128 129 131 136 135 133 135 135
95 93 96 98 96 93 92 93 93 96 98 101 103 105 107 106 103 103 105 107 108 111 118 125 129 129 128 128 129 131 132 132 143 151 122 122 123 131 140 140 138 138 139
102 102 102 100 99 94 95 96 98 99 101 102 103 105 105 105 105 105 106 108 108 110 116 123 128 129 129 131 132 134 137 146 163 132 128 132 129 133 142 141 144 145 143
99 100 106 101 101 98 98 99 99 101 103 103 103 104 105 105 105 106 107 108 111 113 115 123 127 130 134 135 137 137 142 160 147 131 135 134 128 135 144 145 146 148 150
100 103 108 113 107 103 99 98 97 100 103 105 106 106 106 105 104 104 105 106 108 113 115 119 125 131 135 139 138 137 148 179 145 136 136 135 133 145 152 154 155 156 160
99 102 106 116 119 118 108 102 101 103 106 109 109 110 112 111 110 108 107 105 104 105 112 118 123 127 131 135 137 140 154 189 157 136 140 136 137 152 161 165 167 167 168
100 102 104 103 105 114 115 113 109 111 113 114 115 116 122 126 122 120 118 107 102 102 105 113 119 121 123 131 141 150 172 196 162 149 149 139 146 160 167 168 170 175 180
108 105 105 105 106 106 107 114 122 127 126 137 132 137 147 127 121 125 103 104 105 105 105 108 120 134 146 148 154 170 196 187 155 154 149 136 157 171 173 176 181 188 191
115 110 109 108 107 108 107 113 116 119 118 111 108 120 122 117 118 118 117 118 116 115 117 118 127 158 185 161 162 188 186 172 168 164 152 148 170 179 181 184 187 191 192
122 118 120 112 109 108 115 117 111 114 114 117 110 116 121 129 133 132 132 140 138 146 137 141 167 162 146 132 153 168 163 185 175 164 154 160 175 184 186 188 188 190 192
124 126 124 121 117 105 92 108 124 121 123 118 119 132 124 121 124 114 126 132 143 137 132 141 142 137 138 148 156 168 187 205 186 164 150 162 178 188 193 194 196 199 201
136 134 128 128 125 124 119 134 115 126 136 126 122 117 126 134 122 120 120 124 133 134 146 150 146 138 153 160 172 182 196 207 196 189 161 168 182 191 198 203 205 207 209
149 144 141 145 142 143 147 144 124 149 162 144 133 123 141 125 122 139 142 141 137 145 140 152 152 156 170 164 174 185 221 206 188 196 192 178 178 188 200 210 215 216 214
162 157 157 163 154 157 163 167 153 175 152 150 140 141 153 139 133 159 142 156 138 136 146 166 153 166 176 182 182 175 174 182 176 194 193 190 183 186 197 210 218 223 220
169 165 174 172 156 163 160 163 115 115 128 143 140 137 143 142 159 185 159 141 146 158 157 158 171 174 159 181 175 169 150 158 163 188 194 187 198 198 192 197 210 219 223
179 176 177 177 168 169 163 157 128 108 108 130 137 137 141 153 163 179 150 130 168 158 159 176 143 162 151 174 165 162 169 163 167 173 179 188 188 202 206 168 183 204 221
182 180 180 179 178 177 168 162 148 122 130 136 129 120 132 145 151 170 155 153 175 150 154 130 131 143 202 217 187 99 132 156 159 162 185 160 167 194 199 187 192 196 203
181 182 187 190 182 184 178 179 166 155 153 130 132 129 143 130 129 178 139 141 185 157 165 172 175 183 203 188 207 189 174 172 149 159 161 159 152 165 161 169 210 225 187
185 187 187 192 191 193 181 177 175 162 159 149 123 119 141 140 148 152 136 179 173 168 181 182 193 242 210 194 275 260 215 172 178 166 162 167 168 169 183 180 178 219 249
187 189 189 189 191 198 189 182 172 171 182 158 158 158 160 164 168 148 176 201 174 211 174 195 210 233 259 244 267 286 296 298 187 167 179 174 184 207 218 190 180 182 202
190 189 189 188 191 192 193 194 188 187 185 183 182 160 160 161 164 162 167 177 199 198 164 218 194 245 252 257 233 252 278 311 285 217 195 184 190 200 222 233 192 178 195
191 189 188 187 189 190 195 195 200 199 198 180 177 157 181 163 173 176 174 174 185 200 176 248 234 265 260 268 263 249 249 242 250 261 251 218 206 204 209 230 238 228 215
191 191 189 186 190 192 197 198 203 200 204 193 188 177 187 175 179 178 184 184 192 185 188 229 234 219 273 272 273 266 263 264 260 258 259 248 249 227 198 221 240 235 228
Height
1516 1515 1512 1511 1511 1510 1509 1509 1509 1510 1511 1511 1511 1511 1511 1511 1513 1514 1516 1519 1521 1523 1525 1527 1529 1531 1533 1535 1537 1539 1540 1542 1544 1546 1547 1548 1550 1551 1553 1554 1555 1556 1557
1517 1516 1514 1514 1513 1512 1511 1511 1511 1513 1513 1514 1514 1514 1514 1515 1516 1518 1520 1522 1524 1526 1527 1529 1531 1533 1535 1537 1539 1540 1542 1544 1545 1547 1548 1550 1551 1553 1554 1555 1557 1558 1558
1518 1518 1516 1516 1515 1515 1514 1514 1514 1515 1516 1517 1518 1518 1518 1519 1520 1521 1523 1525 1526 1528 1529 1531 1533 1534 1537 1539 1540 1542 1544 1545 1547 1548 1550 1552 1553 1554 1555 1556 1557 1558 1559
1520 1520 1519 1518 1518 1518 1517 1518 1518 1519 1519 1520 1521 1521 1522 1523 1524 1525 1526 1527 1529 1530 1531 1533 1534 1536 1538 1540 1542 1544 1545 1547 1549 1550 1553 1554 1555 1555 1556 1557 1559 1560 1561
1521 1521 1520 1520 1520 1520 1521 1521 1521 1522 1522 1523 1524 1525 1526 1526 1527 1528 1529 1530 1530 1531 1532 1533 1535 1538 1540 1542 1544 1545 1547 1549 1550 1552 1554 1555 1556 1556 1557 1558 1559 1561 1562
1523 1523 1521 1522 1523 1523 1523 1524 1524 1525 1525 1526 1527 1528 1528 1529 1530 1530 1531 1532 1533 1533 1533 1534 1536 1539 1541 1543 1545 1547 1548 1550 1552 1555 1555 1556 1557 1556 1557 1559 1560 1562 1563
1524 1525 1524 1524 1525 1525 1526 1527 1527 1528 1528 1529 1529 1530 1531 1532 1533 1533 1534 1535 1535 1535 1535 1536 1538 1540 1543 1545 1546 1548 1550 1551 1554 1556 1556 1557 1557 1557 1559 1560 1561 1563 1564
1526 1527 1526 1526 1527 1527 1528 1529 1529 1530 1530 1531 1532 1532 1533 1534 1535 1535 1536 1537 1537 1538 1539 1539 1541 1543 1544 1546 1548 1549 1551 1552 1555 1557 1557 1558 1558 1558 1560 1561 1562 1563 1564
1528 1529 1529 1530 1529 1529 1530 1531 1532 1532 1532 1533 1534 1534 1535 1536 1536 1537 1538 1539 1539 1540 1541 1542 1543 1545 1546 1547 1549 1550 1552 1553 1556 1557 1558 1558 1558 1559 1560 1561 1562 1563 1564
1529 1530 1531 1532 1532 1533 1533 1532 1533 1533 1534 1535 1535 1536 1537 1537 1538 1539 1540 1540 1541 1542 1542 1543 1545 1546 1547 1548 1550 1551 1553 1554 1557 1558 1559 1559 1559 1560 1560 1561 1562 1563 1564
1531 1532 1533 1534 1534 1535 1535 1534 1534 1535 1535 1536 1537 1537 1538 1540 1541 1541 1541 1541 1542 1543 1544 1545 1546 1547 1548 1549 1550 1551 1553 1555 1557 1558 1559 1559 1559 1560 1560 1561 1561 1562 1563
1533 1534 1534 1535 1536 1536 1537 1536 1536 1537 1537 1538 1538 1539 1540 1540 1542 1542 1542 1543 1543 1544 1545 1546 1547 1548 1549 1551 1551 1552 1553 1555 1556 1557 1558 1558 1559 1560 1561 1561 1561 1561 1561
1534 1535 1535 1536 1536 1537 1538 1538 1538 1539 1539 1539 1539 1540 1540 1542 1543 1544 1544 1544 1545 1546 1547 1547 1548 1549 1550 1551 1552 1553 1553 1555 1556 1557 1557 1558 1559 1560 1560 1561 1561 1561 1562
1535 1536 1536 1537 1537 1537 1538 1539 1539 1540 1540 1541 1540 1541 1542 1542 1543 1544 1544 1545 1546 1547 1547 1548 1548 1549 1550 1550 1551 1552 1552 1554 1555 1556 1556 1557 1558 1559 1559 1560 1561 1561 1562
1536 1537 1537 1537 1537 1538 1538 1539 1540 1540 1540 1540 1540 1541 1541 1543 1544 1544 1544 1545 1546 1547 1548 1548 1549 1549 1549 1550 1551 1551 1551 1551 1553 1554 1555 1556 1557 1558 1559 1559 1560 1561 1561
1536 1537 1538 1538 1538 1538 1538 1539 1539 1539 1539 1540 1541 1541 1542 1543 1543 1544 1545 1545 1546 1547 1548 1548 1549 1549 1550 1550 1550 1550 1549 1549 1550 1552 1554 1555 1556 1557 1557 1558 1559 1560 1560
1536 1538 1538 1539 1539 1539 1539 1539 1539 1538 1539 1539 1540 1541 1542 1543 1543 1544 1545 1545 1546 1547 1547 1548 1549 1549 1550 1550 1550 1549 1549 1549 1550 1551 1553 1554 1555 1556 1556 1557 1558 1558 1558
1537 1537 1538 1540 1539 1539 1539 1539 1539 1539 1538 1539 1540 1541 1542 1543 1543 1544 1545 1546 1546 1547 1548 1548 1549 1549 1550 1550 1550 1550 1549 1549 1550 1551 1552 1553 1554 1555 1556 1555 1556 1556 1557
1536 1537 1538 1539 1539 1540 1540 1540 1540 1539 1539 1540 1541 1542 1543 1543 1543 1544 1545 1545 1546 1547 1548 1549 1549 1549 1550 1550 1550 1550 1550 1550 1550 1551 1552 1553 1553 1554 1554 1554 1554 1554 1554
1535 1536 1538 1539 1539 1540 1540 1540 1541 1541 1541 1541 1542 1542 1543 1544 1544 1545 1545 1545 1547 1547 1547 1548 1548 1548 1549 1549 1550 1550 1550 1550 1550 1551 1552 1552 1552 1553 1553 1553 1553 1552 1552
1534 1535 1536 1538 1539 1539 1540 1541 1541 1542 1542 1543 1543 1543 1543 1544 1544 1544 1545 1545 1546 1547 1547 1547 1548 1548 1549 1549 1550 1550 1550 1550 1550 1550 1551 1552 1552 1552 1552 1551 1551 1551 1551
1533 1534 1535 1537 1538 1539 1540 1540 1541 1542 1543 1543 1543 1543 1543 1544 1544 1545 1545 1545 1546 1546 1546 1547 1547 1548 1549 1549 1549 1549 1550 1551 1550 1550 1550 1550 1551 1551 1551 1551 1550 1549 1550
1531 1533 1535 1536 1537 1538 1539 1541 1541 1542 1542 1543 1543 1543 1543 1543 1544 1544 1544 1545 1545 1546 1546 1546 1546 1546 1548 1548 1548 1549 1549 1548 1549 1550 1549 1550 1550 1550 1550 1550 1549 1549 1548
1530 1531 1533 1534 1535 1537 1538 1540 1541 1541 1542 1542 1543 1543 1543 1543 1543 1544 1544 1544 1544 1545 1545 1545 1545 1545 1546 1547 1547 1547 1548 1548 1549 1548 1549 1548 1548 1548 1548 1548 1548 1547 1547
1528 1530 1531 1532 1534 1535 1537 1538 1539 1540 1541 1542 1542 1542 1542 1543 1543 1543 1543 1543 1543 1544 1544 1544 1544 1544 1545 1545 1546 1546 1546 1547 1547 1547 1547 1547 1547 1547 1546 1546 1546 1546 1546
1525 1527 1529 1530 1532 1533 1535 1536 1537 1539 1540 1541 1541 1541 1542 1542 1542 1542 1542 1542 1543 1543 1543 1543 1543 1543 1543 1543 1544 1544 1545 1546 1545 1546 1545 1545 1545 1545 1545 1544 1544 1544 1544